Regional Weather Roundup
Issued by NWS

Home | Current Version | Previous Version | Graphics & Text | Print | Product List | Glossary On
Versions: 1 2 3 4 5 6 7 8 9 10 11 12 13 14 15 16 17 18 19 20 21 22 23 24 25 26 27 28 29 30 31 32 33 34 35 36 37 38 39 40 41 42 43 44 45 46 47 48 49 50
000
ASUS43 KFSD 171710
RWRSD

WEATHER ROUNDUP FOR SOUTH DAKOTA
NATIONAL WEATHER SERVICE SIOUX FALLS SD
1200 PM CDT WED SEP 17 2014

NOTE: "FAIR" INDICATES FEW OR NO CLOUDS BELOW 12,000 FEET WITH NO
SIGNIFICANT WEATHER AND/OR OBSTRUCTIONS TO VISIBILITY.


SDZ001>005-009-010-012>017-171800-
NORTHWEST AND NORTH CENTRAL SOUTH DAKOTA

CITY           SKY/WX    TMP DP  RH WIND       PRES   REMARKS
BUFFALO          N/A     71  51  49 E13       29.90S
FAITH            N/A     71  51  49 E12       29.96S
MOBRIDGE       SUNNY     71  53  52 E9        29.94S
$$

SDZ012>016-024>037-041>051-057-063-072>074-171800-
SOUTHWEST AND SOUTH CENTRAL SOUTH DAKOTA

CITY           SKY/WX    TMP DP  RH WIND       PRES   REMARKS
RAPID CTY ARPT MOSUNNY   74  48  39 VRB7      29.98S
PIERRE         SUNNY     74  53  48 E9        29.94R
CUSTER         MOSUNNY   75  31  19 S6        30.08F
ELLSWORTH AFB  PTSUNNY   70  49  47 E3        29.97F
PHILIP         SUNNY     71  55  56 E10       29.94S
PINE RIDGE     MOSUNNY   71  52  50 CALM      29.99S
WINNER         FAIR      75  57  53 E10       29.94S
$$

SDZ004>011-016>023-039-040-171800-
NORTHEAST SOUTH DAKOTA

CITY           SKY/WX    TMP DP  RH WIND       PRES   REMARKS
ABERDEEN       SUNNY     68  51  54 NE13      29.96S
WATERTOWN      SUNNY     70  53  54 VRB7      29.95S
SISSETON         N/A     70  54  56 N13       29.95R
$$

SDZ017-020-022-023-036>040-048>070-171800-
SOUTHEAST SOUTH DAKOTA

CITY           SKY/WX    TMP DP  RH WIND       PRES   REMARKS
SIOUX FALLS    MOSUNNY   69  56  62 VRB6      29.94S
HURON          SUNNY     69  56  62 E5        29.94S
CHAMBERLAIN    SUNNY     68  59  72 SE6       29.95S
MITCHELL       SUNNY     70  59  68 NE6       29.94S
YANKTON        SUNNY     70  59  68 SE3       29.93R
$$

ABBREVIATIONS USED IN REMARKS
   TC - TEMPERATURE IN CELSIUS
  WCI - WIND CHILL INDEX
   HX - HEAT INDEX
  VSB - VISIBILITY



USA.gov is the U.S. government's official web portal to all federal, state and local government web resources and services.